Wetterdaten: Montag, 12.10.2015
Datum Zeit Temperatur Luftfeuchte Luftdruck Regen Wind Richtung Richtung Sonnenschein ET UV Solar Taupunkt Windchill Windben
12.10.2015 00:00 3,1 C 74 % 1018,7 hPa 0,0 l/m 1,4 km/h (1 Bft) O-NO 61 0 min 0,000 mm 0,0 UV-I 0 W/m -1,1 C 3,1 C 9,7 km/h (2 Bft)
12.10.2015 00:05 3,1 C 74 % 1018,7 hPa 0,0 l/m 0,0 km/h (0 Bft) O-NO 61 0 min 0,000 mm 0,0 UV-I 0 W/m -1,1 C 3,1 C 0,0 km/h (0 Bft)
12.10.2015 00:10 3,1 C 74 % 1018,6 hPa 0,0 l/m 0,0 km/h (0 Bft) O-NO 61 0 min 0,000 mm 0,0 UV-I 0 W/m -1,1 C 3,1 C 0,0 km/h (0 Bft)
12.10.2015 00:15 2,9 C 74 % 1018,6 hPa 0,0 l/m 0,0 km/h (0 Bft) O-NO 61 0 min 0,000 mm 0,0 UV-I 0 W/m -1,3 C 2,9 C 0,0 km/h (0 Bft)
12.10.2015 00:20 2,8 C 75 % 1018,6 hPa 0,0 l/m 1,4 km/h (1 Bft) NO 53 0 min 0,000 mm 0,0 UV-I 0 W/m -1,2 C 2,8 C 6,4 km/h (2 Bft)
12.10.2015 00:25 2,7 C 75 % 1018,6 hPa 0,0 l/m 0,6 km/h (0 Bft) O-NO 61 0 min 0,000 mm 0,0 UV-I 0 W/m -1,3 C 2,7 C 4,8 km/h (1 Bft)
12.10.2015 00:30 2,6 C 75 % 1018,6 hPa 0,0 l/m 2,5 km/h (1 Bft) O-NO 63 0 min 0,000 mm 0,0 UV-I 0 W/m -1,4 C 2,6 C 4,8 km/h (1 Bft)
12.10.2015 00:35 2,5 C 76 % 1018,6 hPa 0,0 l/m 1,8 km/h (1 Bft) NO 56 0 min 0,000 mm 0,0 UV-I 0 W/m -1,3 C 2,5 C 4,8 km/h (1 Bft)
12.10.2015 00:40 2,4 C 76 % 1018,5 hPa 0,0 l/m 2,7 km/h (1 Bft) O-NO 61 0 min 0,000 mm 0,0 UV-I 0 W/m -1,4 C 2,4 C 9,7 km/h (2 Bft)
12.10.2015 00:45 2,4 C 76 % 1018,5 hPa 0,0 l/m 4,3 km/h (1 Bft) NO 53 0 min 0,000 mm 0,0 UV-I 0 W/m -1,4 C 2,4 C 8,0 km/h (2 Bft)
12.10.2015 00:50 2,5 C 76 % 1018,4 hPa 0,0 l/m 4,2 km/h (1 Bft) O-NO 65 0 min 0,000 mm 0,0 UV-I 0 W/m -1,3 C 2,5 C 9,7 km/h (2 Bft)
12.10.2015 00:55 2,6 C 75 % 1018,5 hPa 0,0 l/m 4,5 km/h (1 Bft) O-NO 65 0 min 0,000 mm 0,0 UV-I 0 W/m -1,4 C 2,6 C 11,3 km/h (2 Bft)
12.10.2015 01:00 2,7 C 75 % 1018,5 hPa 0,0 l/m 2,8 km/h (1 Bft) O-NO 61 0 min 0,000 mm 0,0 UV-I 0 W/m -1,3 C 2,7 C 11,3 km/h (2 Bft)
12.10.2015 01:04 2,7 C 75 % 1018,5 hPa 0,0 l/m 2,2 km/h (1 Bft) O-NO 57 0 min 0,025 mm 0,0 UV-I 0 W/m -1,3 C 2,7 C 9,7 km/h (2 Bft)
12.10.2015 01:05 2,7 C 75 % 1018,5 hPa 0,0 l/m 2,7 km/h (1 Bft) O-NO 57 0 min 0,000 mm 0,0 UV-I 0 W/m -1,3 C 2,7 C 3,2 km/h (1 Bft)
12.10.2015 01:10 2,7 C 75 % 1018,5 hPa 0,0 l/m 2,2 km/h (1 Bft) O-NO 63 0 min 0,000 mm 0,0 UV-I 0 W/m -1,3 C 2,7 C 6,4 km/h (2 Bft)
12.10.2015 01:15 2,6 C 75 % 1018,5 hPa 0,0 l/m 2,4 km/h (1 Bft) NO 41 0 min 0,000 mm 0,0 UV-I 0 W/m -1,4 C 2,6 C 6,4 km/h (2 Bft)
12.10.2015 01:20 2,6 C 75 % 1018,6 hPa 0,0 l/m 2,6 km/h (1 Bft) O-NO 61 0 min 0,000 mm 0,0 UV-I 0 W/m -1,4 C 2,6 C 11,3 km/h (2 Bft)
12.10.2015 01:25 2,6 C 75 % 1018,6 hPa 0,0 l/m 0,5 km/h (0 Bft) O-NO 70 0 min 0,000 mm 0,0 UV-I 0 W/m -1,4 C 2,6 C 4,8 km/h (1 Bft)
12.10.2015 01:30 2,6 C 75 % 1018,6 hPa 0,0 l/m 0,0 km/h (0 Bft) O-NO 70 0 min 0,000 mm 0,0 UV-I 0 W/m -1,4 C 2,6 C 1,6 km/h (1 Bft)
12.10.2015 01:35 2,5 C 75 % 1018,6 hPa 0,0 l/m 0,6 km/h (0 Bft) O-NO 63 0 min 0,000 mm 0,0 UV-I 0 W/m -1,5 C 2,5 C 6,4 km/h (2 Bft)
12.10.2015 01:40 2,4 C 75 % 1018,6 hPa 0,0 l/m 0,3 km/h (0 Bft) O-NO 63 0 min 0,000 mm 0,0 UV-I 0 W/m -1,6 C 2,4 C 4,8 km/h (1 Bft)
12.10.2015 01:45 2,4 C 75 % 1018,6 hPa 0,0 l/m 0,3 km/h (0 Bft) O 86 0 min 0,000 mm 0,0 UV-I 0 W/m -1,6 C 2,4 C 4,8 km/h (1 Bft)
12.10.2015 01:50 2,4 C 75 % 1018,5 hPa 0,0 l/m 0,0 km/h (0 Bft) O 86 0 min 0,000 mm 0,0 UV-I 0 W/m -1,6 C 2,4 C 0,0 km/h (0 Bft)
12.10.2015 01:55 2,3 C 76 % 1018,5 hPa 0,0 l/m 0,4 km/h (0 Bft) O 84 0 min 0,000 mm 0,0 UV-I 0 W/m -1,5 C 2,3 C 3,2 km/h (1 Bft)
12.10.2015 02:00 2,3 C 76 % 1018,5 hPa 0,0 l/m 0,4 km/h (0 Bft) O 98 0 min 0,026 mm 0,0 UV-I 0 W/m -1,5 C 2,3 C 4,8 km/h (1 Bft)
12.10.2015 02:05 2,2 C 76 % 1018,5 hPa 0,0 l/m 0,8 km/h (0 Bft) O-NO 57 0 min 0,000 mm 0,0 UV-I 0 W/m -1,6 C 2,2 C 8,0 km/h (2 Bft)
12.10.2015 02:10 2,1 C 76 % 1018,6 hPa 0,0 l/m 0,3 km/h (0 Bft) O-NO 57 0 min 0,000 mm 0,0 UV-I 0 W/m -1,7 C 2,1 C 4,8 km/h (1 Bft)
12.10.2015 02:15 2,0 C 76 % 1018,6 hPa 0,0 l/m 1,4 km/h (1 Bft) NO 42 0 min 0,000 mm 0,0 UV-I 0 W/m -1,8 C 2,0 C 6,4 km/h (2 Bft)
12.10.2015 02:20 1,9 C 76 % 1018,6 hPa 0,0 l/m 1,1 km/h (1 Bft) O-NO 60 0 min 0,000 mm 0,0 UV-I 0 W/m -1,9 C 1,9 C 3,2 km/h (1 Bft)
12.10.2015 02:25 1,9 C 77 % 1018,6 hPa 0,0 l/m 2,5 km/h (1 Bft) NO 42 0 min 0,000 mm 0,0 UV-I 0 W/m -1,7 C 1,9 C 4,8 km/h (1 Bft)
12.10.2015 02:30 1,9 C 77 % 1018,6 hPa 0,0 l/m 2,4 km/h (1 Bft) N-NO 26 0 min 0,000 mm 0,0 UV-I 0 W/m -1,7 C 1,9 C 6,4 km/h (2 Bft)
12.10.2015 02:35 1,9 C 77 % 1018,7 hPa 0,0 l/m 2,8 km/h (1 Bft) O-NO 65 0 min 0,000 mm 0,0 UV-I 0 W/m -1,7 C 1,9 C 11,3 km/h (2 Bft)
12.10.2015 02:40 2,0 C 76 % 1018,7 hPa 0,0 l/m 3,2 km/h (1 Bft) O-NO 70 0 min 0,000 mm 0,0 UV-I 0 W/m -1,8 C 2,0 C 9,7 km/h (2 Bft)
12.10.2015 02:45 2,0 C 76 % 1018,6 hPa 0,0 l/m 2,2 km/h (1 Bft) O-NO 59 0 min 0,000 mm 0,0 UV-I 0 W/m -1,8 C 2,0 C 6,4 km/h (2 Bft)
12.10.2015 02:50 1,9 C 77 % 1018,6 hPa 0,0 l/m 2,0 km/h (1 Bft) O-NO 78 0 min 0,000 mm 0,0 UV-I 0 W/m -1,7 C 1,9 C 6,4 km/h (2 Bft)
12.10.2015 02:55 1,8 C 77 % 1018,7 hPa 0,0 l/m 1,3 km/h (1 Bft) O-NO 63 0 min 0,000 mm 0,0 UV-I 0 W/m -1,8 C 1,8 C 6,4 km/h (2 Bft)
12.10.2015 03:00 1,8 C 77 % 1018,7 hPa 0,0 l/m 1,0 km/h (0 Bft) O-NO 63 0 min 0,025 mm 0,0 UV-I 0 W/m -1,8 C 1,8 C 6,4 km/h (2 Bft)
12.10.2015 03:05 1,8 C 77 % 1018,7 hPa 0,0 l/m 0,7 km/h (0 Bft) O-NO 63 0 min 0,000 mm 0,0 UV-I 0 W/m -1,8 C 1,8 C 3,2 km/h (1 Bft)
12.10.2015 03:10 1,7 C 77 % 1018,7 hPa 0,0 l/m 1,0 km/h (0 Bft) O-SO 105 0 min 0,000 mm 0,0 UV-I 0 W/m -1,9 C 1,7 C 4,8 km/h (1 Bft)
12.10.2015 03:15 1,6 C 77 % 1018,7 hPa 0,0 l/m 1,8 km/h (1 Bft) O 80 0 min 0,000 mm 0,0 UV-I 0 W/m -2,0 C 1,6 C 6,4 km/h (2 Bft)
12.10.2015 03:20 1,6 C 77 % 1018,8 hPa 0,0 l/m 3,0 km/h (1 Bft) O-NO 63 0 min 0,000 mm 0,0 UV-I 0 W/m -2,0 C 1,6 C 6,4 km/h (2 Bft)
12.10.2015 03:25 1,6 C 77 % 1018,8 hPa 0,0 l/m 2,6 km/h (1 Bft) O-NO 57 0 min 0,000 mm 0,0 UV-I 0 W/m -2,0 C 1,6 C 4,8 km/h (1 Bft)
12.10.2015 03:30 1,5 C 78 % 1018,8 hPa 0,0 l/m 1,0 km/h (0 Bft) O-NO 57 0 min 0,000 mm 0,0 UV-I 0 W/m -1,9 C 1,5 C 3,2 km/h (1 Bft)
12.10.2015 03:35 1,4 C 78 % 1018,7 hPa 0,0 l/m 0,8 km/h (0 Bft) O-NO 57 0 min 0,000 mm 0,0 UV-I 0 W/m -2,0 C 1,4 C 3,2 km/h (1 Bft)
12.10.2015 03:40 1,3 C 78 % 1018,7 hPa 0,0 l/m 0,7 km/h (0 Bft) O-NO 58 0 min 0,000 mm 0,0 UV-I 0 W/m -2,1 C 1,3 C 4,8 km/h (1 Bft)
12.10.2015 03:45 1,3 C 79 % 1018,7 hPa 0,0 l/m 0,1 km/h (0 Bft) O-NO 58 0 min 0,000 mm 0,0 UV-I 0 W/m -1,9 C 1,3 C 1,6 km/h (1 Bft)
12.10.2015 03:50 1,2 C 79 % 1018,8 hPa 0,0 l/m 0,0 km/h (0 Bft) O-NO 58 0 min 0,000 mm 0,0 UV-I 0 W/m -2,0 C 1,2 C 1,6 km/h (1 Bft)
12.10.2015 03:55 1,2 C 79 % 1018,8 hPa 0,0 l/m 0,1 km/h (0 Bft) O-NO 58 0 min 0,000 mm 0,0 UV-I 0 W/m -2,0 C 1,2 C 1,6 km/h (1 Bft)
12.10.2015 04:00 1,2 C 79 % 1018,8 hPa 0,0 l/m 0,1 km/h (0 Bft) O-NO 58 0 min 0,000 mm 0,0 UV-I 0 W/m -2,0 C 1,2 C 1,6 km/h (1 Bft)
12.10.2015 04:05 1,2 C 79 % 1018,7 hPa 0,0 l/m 0,1 km/h (0 Bft) O-NO 58 0 min 0,000 mm 0,0 UV-I 0 W/m -2,0 C 1,2 C 1,6 km/h (1 Bft)
12.10.2015 04:10 1,1 C 78 % 1018,7 hPa 0,0 l/m 0,2 km/h (0 Bft) O-NO 57 0 min 0,000 mm 0,0 UV-I 0 W/m -2,3 C 1,1 C 3,2 km/h (1 Bft)
12.10.2015 04:15 1,1 C 78 % 1018,7 hPa 0,0 l/m 1,1 km/h (1 Bft) O-NO 60 0 min 0,000 mm 0,0 UV-I 0 W/m -2,3 C 1,1 C 3,2 km/h (1 Bft)
12.10.2015 04:20 1,1 C 78 % 1018,7 hPa 0,0 l/m 0,8 km/h (0 Bft) O-NO 58 0 min 0,000 mm 0,0 UV-I 0 W/m -2,3 C 1,1 C 8,0 km/h (2 Bft)
12.10.2015 04:25 1,2 C 78 % 1018,6 hPa 0,0 l/m 1,8 km/h (1 Bft) O-NO 66 0 min 0,000 mm 0,0 UV-I 0 W/m -2,2 C 1,2 C 6,4 km/h (2 Bft)
12.10.2015 04:30 1,2 C 78 % 1018,6 hPa 0,0 l/m 2,3 km/h (1 Bft) O-NO 71 0 min 0,000 mm 0,0 UV-I 0 W/m -2,2 C 1,2 C 12,9 km/h (3 Bft)
12.10.2015 04:35 1,3 C 78 % 1018,6 hPa 0,0 l/m 1,1 km/h (1 Bft) O-NO 75 0 min 0,000 mm 0,0 UV-I 0 W/m -2,1 C 1,3 C 4,8 km/h (1 Bft)
12.10.2015 04:40 1,3 C 78 % 1018,6 hPa 0,0 l/m 0,5 km/h (0 Bft) O-NO 57 0 min 0,000 mm 0,0 UV-I 0 W/m -2,1 C 1,3 C 3,2 km/h (1 Bft)
12.10.2015 04:45 1,2 C 78 % 1018,6 hPa 0,0 l/m 0,9 km/h (0 Bft) O-NO 64 0 min 0,000 mm 0,0 UV-I 0 W/m -2,2 C 1,2 C 6,4 km/h (2 Bft)
12.10.2015 04:50 1,1 C 78 % 1018,6 hPa 0,0 l/m 1,0 km/h (0 Bft) NO 56 0 min 0,000 mm 0,0 UV-I 0 W/m -2,3 C 1,1 C 4,8 km/h (1 Bft)
12.10.2015 04:55 1,0 C 79 % 1018,6 hPa 0,0 l/m 0,3 km/h (0 Bft) NO 56 0 min 0,000 mm 0,0 UV-I 0 W/m -2,2 C 1,0 C 3,2 km/h (1 Bft)
12.10.2015 05:00 0,9 C 79 % 1018,6 hPa 0,0 l/m 0,3 km/h (0 Bft) O-NO 59 0 min 0,000 mm 0,0 UV-I 0 W/m -2,3 C 0,9 C 3,2 km/h (1 Bft)
12.10.2015 05:05 0,9 C 79 % 1018,5 hPa 0,0 l/m 1,5 km/h (1 Bft) O-NO 69 0 min 0,000 mm 0,0 UV-I 0 W/m -2,3 C 0,9 C 4,8 km/h (1 Bft)
12.10.2015 05:10 0,8 C 79 % 1018,6 hPa 0,0 l/m 1,0 km/h (0 Bft) O-NO 71 0 min 0,000 mm 0,0 UV-I 0 W/m -2,4 C 0,8 C 4,8 km/h (1 Bft)
12.10.2015 05:15 0,8 C 79 % 1018,6 hPa 0,0 l/m 1,7 km/h (1 Bft) O 88 0 min 0,000 mm 0,0 UV-I 0 W/m -2,4 C 0,8 C 4,8 km/h (1 Bft)
12.10.2015 05:20 0,6 C 79 % 1018,6 hPa 0,0 l/m 0,7 km/h (0 Bft) O 88 0 min 0,000 mm 0,0 UV-I 0 W/m -2,6 C 0,6 C 3,2 km/h (1 Bft)
12.10.2015 05:25 0,6 C 79 % 1018,6 hPa 0,0 l/m 0,5 km/h (0 Bft) O 88 0 min 0,000 mm 0,0 UV-I 0 W/m -2,6 C 0,6 C 3,2 km/h (1 Bft)
12.10.2015 05:30 0,4 C 79 % 1018,7 hPa 0,0 l/m 0,4 km/h (0 Bft) O 88 0 min 0,000 mm 0,0 UV-I 0 W/m -2,8 C 0,4 C 3,2 km/h (1 Bft)
12.10.2015 05:35 0,4 C 79 % 1018,7 hPa 0,0 l/m 0,4 km/h (0 Bft) O 88 0 min 0,000 mm 0,0 UV-I 0 W/m -2,8 C 0,4 C 3,2 km/h (1 Bft)
12.10.2015 05:40 0,5 C 79 % 1018,7 hPa 0,0 l/m 0,1 km/h (0 Bft) O 88 0 min 0,000 mm 0,0 UV-I 0 W/m -2,7 C 0,5 C 1,6 km/h (1 Bft)
12.10.2015 05:45 0,4 C 79 % 1018,7 hPa 0,0 l/m 0,1 km/h (0 Bft) O 88 0 min 0,000 mm 0,0 UV-I 0 W/m -2,8 C 0,4 C 1,6 km/h (1 Bft)
12.10.2015 05:50 0,4 C 80 % 1018,7 hPa 0,0 l/m 0,2 km/h (0 Bft) O 88 0 min 0,000 mm 0,0 UV-I 0 W/m -2,6 C 0,4 C 1,6 km/h (1 Bft)
12.10.2015 05:55 0,4 C 80 % 1018,7 hPa 0,0 l/m 0,1 km/h (0 Bft) O 88 0 min 0,000 mm 0,0 UV-I 0 W/m -2,6 C 0,4 C 1,6 km/h (1 Bft)
12.10.2015 06:00 0,3 C 80 % 1018,7 hPa 0,0 l/m 0,8 km/h (0 Bft) O 88 0 min 0,000 mm 0,0 UV-I 0 W/m -2,7 C 0,3 C 3,2 km/h (1 Bft)
12.10.2015 06:05 0,2 C 79 % 1018,7 hPa 0,0 l/m 0,9 km/h (0 Bft) O 85 0 min 0,000 mm 0,0 UV-I 0 W/m -3,0 C 0,2 C 3,2 km/h (1 Bft)
12.10.2015 06:10 0,1 C 80 % 1018,7 hPa 0,0 l/m 0,5 km/h (0 Bft) O-NO 61 0 min 0,000 mm 0,0 UV-I 0 W/m -2,9 C 0,1 C 3,2 km/h (1 Bft)
12.10.2015 06:15 0,0 C 80 % 1018,7 hPa 0,0 l/m 0,1 km/h (0 Bft) O-NO 78 0 min 0,000 mm 0,0 UV-I 0 W/m -3,0 C 0,0 C 1,6 km/h (1 Bft)
12.10.2015 06:20 0,0 C 79 % 1018,9 hPa 0,0 l/m 1,5 km/h (1 Bft) O 85 0 min 0,000 mm 0,0 UV-I 0 W/m -3,2 C 0,0 C 4,8 km/h (1 Bft)
12.10.2015 06:25 0,2 C 79 % 1019,0 hPa 0,0 l/m 1,0 km/h (0 Bft) O 88 0 min 0,000 mm 0,0 UV-I 0 W/m -3,0 C 0,2 C 4,8 km/h (1 Bft)
12.10.2015 06:30 0,2 C 79 % 1019,0 hPa 0,0 l/m 0,1 km/h (0 Bft) O 88 0 min 0,000 mm 0,0 UV-I 0 W/m -3,0 C 0,2 C 1,6 km/h (1 Bft)
12.10.2015 06:35 0,2 C 80 % 1018,9 hPa 0,0 l/m 1,7 km/h (1 Bft) NO 50 0 min 0,000 mm 0,0 UV-I 0 W/m -2,8 C 0,2 C 4,8 km/h (1 Bft)
12.10.2015 06:40 0,2 C 80 % 1018,9 hPa 0,0 l/m 0,9 km/h (0 Bft) NO 55 0 min 0,000 mm 0,0 UV-I 0 W/m -2,8 C 0,2 C 4,8 km/h (1 Bft)
12.10.2015 06:45 0,2 C 80 % 1018,9 hPa 0,0 l/m 1,6 km/h (1 Bft) O-NO 66 0 min 0,000 mm 0,0 UV-I 0 W/m -2,8 C 0,2 C 4,8 km/h (1 Bft)
12.10.2015 06:50 0,2 C 80 % 1019,0 hPa 0,0 l/m 0,5 km/h (0 Bft) O-NO 66 0 min 0,000 mm 0,0 UV-I 0 W/m -2,8 C 0,2 C 3,2 km/h (1 Bft)
12.10.2015 06:55 0,2 C 80 % 1019,0 hPa 0,0 l/m 0,0 km/h (0 Bft) O-NO 66 0 min 0,000 mm 0,0 UV-I 0 W/m -2,8 C 0,2 C 1,6 km/h (1 Bft)
12.10.2015 07:00 0,2 C 80 % 1019,0 hPa 0,0 l/m 0,0 km/h (0 Bft) O-NO 66 0 min 0,000 mm 0,0 UV-I 0 W/m -2,8 C 0,2 C 1,6 km/h (1 Bft)
12.10.2015 07:05 0,0 C 80 % 1019,0 hPa 0,0 l/m 0,8 km/h (0 Bft) O 84 0 min 0,000 mm 0,0 UV-I 0 W/m -3,0 C 0,0 C 3,2 km/h (1 Bft)
12.10.2015 07:10 -0,1 C 79 % 1019,0 hPa 0,0 l/m 0,4 km/h (0 Bft) O 86 0 min 0,000 mm 0,0 UV-I 0 W/m -3,3 C -0,1 C 3,2 km/h (1 Bft)
12.10.2015 07:15 -0,2 C 79 % 1019,2 hPa 0,0 l/m 0,4 km/h (0 Bft) O 86 0 min 0,000 mm 0,0 UV-I 0 W/m -3,4 C -0,2 C 3,2 km/h (1 Bft)
12.10.2015 07:20 -0,2 C 79 % 1019,2 hPa 0,0 l/m 0,6 km/h (0 Bft) O 86 0 min 0,000 mm 0,0 UV-I 0 W/m -3,4 C -0,2 C 3,2 km/h (1 Bft)
12.10.2015 07:25 -0,3 C 80 % 1019,1 hPa 0,0 l/m 1,0 km/h (0 Bft) O 86 0 min 0,000 mm 0,0 UV-I 0 W/m -3,3 C -0,3 C 3,2 km/h (1 Bft)
12.10.2015 07:30 -0,4 C 80 % 1019,2 hPa 0,0 l/m 0,0 km/h (0 Bft) O 86 0 min 0,000 mm 0,0 UV-I 0 W/m -3,4 C -0,4 C 1,6 km/h (1 Bft)
12.10.2015 07:35 -0,5 C 80 % 1019,2 hPa 0,0 l/m 0,1 km/h (0 Bft) O 86 0 min 0,000 mm 0,0 UV-I 0 W/m -3,5 C -0,5 C 1,6 km/h (1 Bft)
12.10.2015 07:40 -0,6 C 80 % 1019,1 hPa 0,0 l/m 0,5 km/h (0 Bft) O 86 0 min 0,000 mm 0,0 UV-I 1 W/m -3,6 C -0,6 C 3,2 km/h (1 Bft)
12.10.2015 07:45 -0,3 C 80 % 1019,2 hPa 0,0 l/m 0,1 km/h (0 Bft) O 86 0 min 0,000 mm 0,0 UV-I 5 W/m -3,3 C -0,3 C 1,6 km/h (1 Bft)
12.10.2015 07:50 -0,2 C 80 % 1019,2 hPa 0,0 l/m 0,1 km/h (0 Bft) O 86 0 min 0,000 mm 0,0 UV-I 8 W/m -3,2 C -0,2 C 1,6 km/h (1 Bft)
12.10.2015 07:55 -0,2 C 80 % 1019,1 hPa 0,0 l/m 1,3 km/h (1 Bft) O 86 5 min 0,000 mm 0,0 UV-I 11 W/m -3,2 C -0,2 C 3,2 km/h (1 Bft)
12.10.2015 08:00 -0,3 C 80 % 1019,2 hPa 0,0 l/m 0,5 km/h (0 Bft) O 86 0 min 0,000 mm 0,0 UV-I 13 W/m -3,3 C -0,3 C 3,2 km/h (1 Bft)
12.10.2015 08:05 -0,3 C 79 % 1019,3 hPa 0,0 l/m 0,6 km/h (0 Bft) O 86 0 min 0,000 mm 0,0 UV-I 17 W/m -3,5 C -0,3 C 3,2 km/h (1 Bft)
12.10.2015 08:10 -0,2 C 80 % 1019,3 hPa 0,0 l/m 0,5 km/h (0 Bft) O 86 0 min 0,000 mm 0,0 UV-I 24 W/m -3,2 C -0,2 C 3,2 km/h (1 Bft)
12.10.2015 08:15 -0,1 C 79 % 1019,4 hPa 0,0 l/m 0,2 km/h (0 Bft) O 86 0 min 0,000 mm 0,0 UV-I 31 W/m -3,3 C -0,1 C 1,6 km/h (1 Bft)
12.10.2015 08:20 0,1 C 80 % 1019,3 hPa 0,0 l/m 0,1 km/h (0 Bft) O 86 0 min 0,000 mm 0,0 UV-I 40 W/m -2,9 C 0,1 C 1,6 km/h (1 Bft)
12.10.2015 08:25 0,3 C 79 % 1019,3 hPa 0,0 l/m 0,7 km/h (0 Bft) O-NO 67 0 min 0,000 mm 0,0 UV-I 50 W/m -2,9 C 0,3 C 3,2 km/h (1 Bft)
12.10.2015 08:30 0,6 C 80 % 1019,4 hPa 0,0 l/m 0,1 km/h (0 Bft) O-NO 67 5 min 0,000 mm 0,0 UV-I 61 W/m -2,4 C 0,6 C 1,6 km/h (1 Bft)
12.10.2015 08:35 0,8 C 80 % 1019,5 hPa 0,0 l/m 0,0 km/h (0 Bft) O-NO 67 5 min 0,000 mm 0,0 UV-I 74 W/m -2,2 C 0,8 C 0,0 km/h (0 Bft)
12.10.2015 08:40 1,1 C 79 % 1019,5 hPa 0,0 l/m 0,0 km/h (0 Bft) O-NO 67 5 min 0,000 mm 0,0 UV-I 83 W/m -2,1 C 1,1 C 1,6 km/h (1 Bft)
12.10.2015 08:45 1,3 C 79 % 1019,6 hPa 0,0 l/m 0,3 km/h (0 Bft) O-NO 69 5 min 0,000 mm 0,0 UV-I 99 W/m -1,9 C 1,3 C 3,2 km/h (1 Bft)
12.10.2015 08:50 1,4 C 79 % 1019,5 hPa 0,0 l/m 0,0 km/h (0 Bft) O-NO 69 5 min 0,000 mm 0,0 UV-I 112 W/m -1,8 C 1,4 C 1,6 km/h (1 Bft)
12.10.2015 08:55 1,8 C 79 % 1019,5 hPa 0,0 l/m 0,0 km/h (0 Bft) O-NO 69 5 min 0,000 mm 0,0 UV-I 127 W/m -1,4 C 1,8 C 0,0 km/h (0 Bft)
12.10.2015 09:00 2,0 C 78 % 1019,5 hPa 0,0 l/m 0,0 km/h (0 Bft) O-NO 67 5 min 0,026 mm 0,0 UV-I 140 W/m -1,4 C 2,0 C 0,0 km/h (0 Bft)
12.10.2015 09:05 2,2 C 79 % 1019,5 hPa 0,0 l/m 0,0 km/h (0 Bft) O-NO 71 5 min 0,000 mm 0,0 UV-I 152 W/m -1,1 C 2,2 C 0,0 km/h (0 Bft)
12.10.2015 09:10 2,4 C 79 % 1019,5 hPa 0,0 l/m 0,0 km/h (0 Bft) O-NO 71 5 min 0,000 mm 0,0 UV-I 164 W/m -0,9 C 2,4 C 0,0 km/h (0 Bft)
12.10.2015 09:15 2,7 C 78 % 1019,5 hPa 0,0 l/m 0,0 km/h (0 Bft) O 88 5 min 0,000 mm 0,5 UV-I 174 W/m -0,7 C 2,7 C 0,0 km/h (0 Bft)
12.10.2015 09:20 3,1 C 78 % 1019,5 hPa 0,0 l/m 0,0 km/h (0 Bft) NO 37 5 min 0,000 mm 0,5 UV-I 185 W/m -0,4 C 3,1 C 0,0 km/h (0 Bft)
12.10.2015 09:25 3,4 C 76 % 1019,5 hPa 0,0 l/m 0,0 km/h (0 Bft) O-NO 57 5 min 0,000 mm 0,5 UV-I 198 W/m -0,4 C 3,4 C 0,0 km/h (0 Bft)
12.10.2015 09:30 3,5 C 75 % 1019,5 hPa 0,0 l/m 0,7 km/h (0 Bft) O 85 5 min 0,000 mm 0,6 UV-I 211 W/m -0,5 C 3,5 C 8,0 km/h (2 Bft)
12.10.2015 09:35 3,7 C 74 % 1019,5 hPa 0,0 l/m 2,4 km/h (1 Bft) NO 55 5 min 0,000 mm 0,6 UV-I 230 W/m -0,5 C 3,7 C 14,5 km/h (3 Bft)
12.10.2015 09:40 4,0 C 73 % 1019,5 hPa 0,0 l/m 4,1 km/h (1 Bft) O-NO 71 5 min 0,000 mm 0,7 UV-I 245 W/m -0,4 C 4,0 C 12,9 km/h (3 Bft)
12.10.2015 09:45 4,1 C 72 % 1019,6 hPa 0,0 l/m 5,5 km/h (1 Bft) O-NO 72 5 min 0,000 mm 0,7 UV-I 252 W/m -0,5 C 4,1 C 14,5 km/h (3 Bft)
12.10.2015 09:50 4,4 C 70 % 1019,6 hPa 0,0 l/m 6,7 km/h (2 Bft) NO 55 5 min 0,000 mm 0,7 UV-I 257 W/m -0,6 C 4,1 C 16,1 km/h (3 Bft)
12.10.2015 09:55 4,5 C 69 % 1019,5 hPa 0,0 l/m 6,3 km/h (2 Bft) N-NO 28 5 min 0,000 mm 0,8 UV-I 250 W/m -0,7 C 4,5 C 16,1 km/h (3 Bft)
12.10.2015 10:00 4,4 C 68 % 1019,5 hPa 0,0 l/m 5,3 km/h (1 Bft) O 80 5 min 0,076 mm 0,8 UV-I 269 W/m -1,0 C 4,4 C 14,5 km/h (3 Bft)
12.10.2015 10:05 4,4 C 69 % 1019,5 hPa 0,0 l/m 3,9 km/h (1 Bft) NO 46 5 min 0,000 mm 0,9 UV-I 288 W/m -0,8 C 4,4 C 12,9 km/h (3 Bft)
12.10.2015 10:10 4,7 C 70 % 1019,5 hPa 0,0 l/m 3,1 km/h (1 Bft) O-NO 75 5 min 0,000 mm 0,9 UV-I 300 W/m -0,3 C 4,7 C 11,3 km/h (2 Bft)
12.10.2015 10:15 5,1 C 68 % 1019,4 hPa 0,0 l/m 4,8 km/h (1 Bft) O-NO 66 5 min 0,000 mm 1,0 UV-I 302 W/m -0,3 C 5,1 C 12,9 km/h (3 Bft)
12.10.2015 10:20 5,3 C 68 % 1019,4 hPa 0,0 l/m 2,1 km/h (1 Bft) O 83 5 min 0,000 mm 1,0 UV-I 308 W/m -0,1 C 5,3 C 11,3 km/h (2 Bft)
12.10.2015 10:25 5,4 C 68 % 1019,4 hPa 0,0 l/m 1,4 km/h (1 Bft) O-NO 70 5 min 0,000 mm 1,0 UV-I 326 W/m -0,0 C 5,4 C 4,8 km/h (1 Bft)
12.10.2015 10:30 5,3 C 68 % 1019,4 hPa 0,0 l/m 4,8 km/h (1 Bft) O 92 5 min 0,000 mm 1,1 UV-I 321 W/m -0,1 C 5,3 C 16,1 km/h (3 Bft)
12.10.2015 10:35 5,3 C 67 % 1019,5 hPa 0,0 l/m 3,9 km/h (1 Bft) O 79 5 min 0,000 mm 1,2 UV-I 353 W/m -0,3 C 5,3 C 11,3 km/h (2 Bft)
12.10.2015 10:40 5,4 C 67 % 1019,5 hPa 0,0 l/m 5,3 km/h (1 Bft) N 9 5 min 0,000 mm 1,2 UV-I 354 W/m -0,2 C 5,4 C 12,9 km/h (3 Bft)
12.10.2015 10:45 5,7 C 66 % 1019,5 hPa 0,0 l/m 4,2 km/h (1 Bft) O-NO 59 5 min 0,000 mm 1,2 UV-I 351 W/m -0,1 C 5,7 C 11,3 km/h (2 Bft)
12.10.2015 10:50 5,6 C 65 % 1019,3 hPa 0,0 l/m 5,2 km/h (1 Bft) O 90 5 min 0,000 mm 1,3 UV-I 359 W/m -0,4 C 5,6 C 11,3 km/h (2 Bft)
12.10.2015 10:55 5,5 C 67 % 1019,4 hPa 0,0 l/m 5,0 km/h (1 Bft) O-SO 113 5 min 0,000 mm 1,4 UV-I 388 W/m -0,1 C 5,5 C 12,9 km/h (3 Bft)
12.10.2015 11:00 5,7 C 66 % 1019,3 hPa 0,0 l/m 4,3 km/h (1 Bft) SO 126 5 min 0,000 mm 1,4 UV-I 408 W/m -0,1 C 5,7 C 12,9 km/h (3 Bft)
12.10.2015 11:05 6,3 C 67 % 1019,4 hPa 0,0 l/m 3,6 km/h (1 Bft) O 88 5 min 0,152 mm 1,5 UV-I 409 W/m 0,6 C 6,3 C 11,3 km/h (2 Bft)
12.10.2015 11:10 6,5 C 64 % 1019,5 hPa 0,0 l/m 2,2 km/h (1 Bft) O-NO 77 5 min 0,000 mm 1,5 UV-I 425 W/m 0,2 C 6,5 C 11,3 km/h (2 Bft)
12.10.2015 11:15 6,6 C 66 % 1019,5 hPa 0,0 l/m 1,0 km/h (0 Bft) O-NO 72 5 min 0,000 mm 1,6 UV-I 434 W/m 0,7 C 6,6 C 9,7 km/h (2 Bft)
12.10.2015 11:20 7,1 C 64 % 1019,5 hPa 0,0 l/m 0,4 km/h (0 Bft) NO 46 5 min 0,000 mm 1,6 UV-I 419 W/m 0,8 C 7,1 C 6,4 km/h (2 Bft)
12.10.2015 11:25 7,4 C 63 % 1019,5 hPa 0,0 l/m 0,3 km/h (0 Bft) NO 51 5 min 0,000 mm 1,6 UV-I 410 W/m 0,8 C 7,4 C 6,4 km/h (2 Bft)
12.10.2015 11:30 7,8 C 62 % 1019,5 hPa 0,0 l/m 0,0 km/h (0 Bft) O-NO 69 5 min 0,000 mm 1,7 UV-I 460 W/m 1,0 C 7,8 C 1,6 km/h (1 Bft)
12.10.2015 11:35 7,8 C 60 % 1019,4 hPa 0,0 l/m 2,8 km/h (1 Bft) O-NO 76 5 min 0,000 mm 1,8 UV-I 470 W/m 0,5 C 7,8 C 11,3 km/h (2 Bft)
12.10.2015 11:40 7,8 C 61 % 1019,3 hPa 0,0 l/m 4,3 km/h (1 Bft) O 83 5 min 0,000 mm 1,8 UV-I 473 W/m 0,8 C 7,8 C 12,9 km/h (3 Bft)
12.10.2015 11:45 7,8 C 61 % 1019,2 hPa 0,0 l/m 3,8 km/h (1 Bft) O-SO 111 5 min 0,000 mm 1,9 UV-I 484 W/m 0,8 C 7,8 C 12,9 km/h (3 Bft)
12.10.2015 11:50 7,7 C 61 % 1019,1 hPa 0,0 l/m 3,9 km/h (1 Bft) O 101 5 min 0,000 mm 1,9 UV-I 486 W/m 0,7 C 7,7 C 11,3 km/h (2 Bft)
12.10.2015 11:55 7,3 C 61 % 1019,1 hPa 0,0 l/m 6,9 km/h (2 Bft) O-SO 107 5 min 0,000 mm 2,0 UV-I 480 W/m 0,3 C 6,9 C 14,5 km/h (3 Bft)
12.10.2015 12:00 7,3 C 62 % 1019,2 hPa 0,0 l/m 3,3 km/h (1 Bft) O-SO 118 5 min 0,203 mm 2,0 UV-I 464 W/m 0,5 C 7,3 C 11,3 km/h (2 Bft)
12.10.2015 12:05 7,6 C 62 % 1019,3 hPa 0,0 l/m 4,0 km/h (1 Bft) O-NO 76 5 min 0,000 mm 2,0 UV-I 487 W/m 0,8 C 7,6 C 11,3 km/h (2 Bft)
12.10.2015 12:10 7,8 C 60 % 1019,3 hPa 0,0 l/m 3,1 km/h (1 Bft) SO 144 5 min 0,000 mm 2,0 UV-I 487 W/m 0,5 C 7,8 C 12,9 km/h (3 Bft)
12.10.2015 12:15 7,7 C 61 % 1019,1 hPa 0,0 l/m 6,6 km/h (2 Bft) O-SO 109 5 min 0,000 mm 2,1 UV-I 511 W/m 0,7 C 7,6 C 11,3 km/h (2 Bft)
12.10.2015 12:20 7,9 C 61 % 1019,1 hPa 0,0 l/m 6,6 km/h (2 Bft) O 94 5 min 0,000 mm 2,1 UV-I 498 W/m 0,9 C 7,8 C 12,9 km/h (3 Bft)
12.10.2015 12:25 8,2 C 60 % 1019,1 hPa 0,0 l/m 5,1 km/h (1 Bft) NO 56 5 min 0,000 mm 2,2 UV-I 520 W/m 0,9 C 8,2 C 14,5 km/h (3 Bft)
12.10.2015 12:30 8,4 C 60 % 1019,1 hPa 0,0 l/m 5,7 km/h (1 Bft) O-NO 64 5 min 0,000 mm 2,2 UV-I 513 W/m 1,1 C 8,4 C 14,5 km/h (3 Bft)
12.10.2015 12:35 8,3 C 58 % 1019,1 hPa 0,0 l/m 7,5 km/h (2 Bft) O-SO 110 5 min 0,000 mm 2,2 UV-I 528 W/m 0,5 C 7,4 C 16,1 km/h (3 Bft)
12.10.2015 12:40 8,1 C 60 % 1019,1 hPa 0,0 l/m 7,0 km/h (2 Bft) O 98 5 min 0,000 mm 2,2 UV-I 530 W/m 0,8 C 7,6 C 12,9 km/h (3 Bft)
12.10.2015 12:45 8,2 C 59 % 1019,2 hPa 0,0 l/m 5,1 km/h (1 Bft) O-SO 106 5 min 0,000 mm 2,2 UV-I 535 W/m 0,7 C 8,2 C 12,9 km/h (3 Bft)
12.10.2015 12:50 8,1 C 60 % 1019,2 hPa 0,0 l/m 6,7 km/h (2 Bft) O-SO 105 5 min 0,000 mm 2,3 UV-I 531 W/m 0,8 C 7,9 C 12,9 km/h (3 Bft)
12.10.2015 12:55 8,2 C 60 % 1019,2 hPa 0,0 l/m 6,8 km/h (2 Bft) O-SO 111 5 min 0,000 mm 2,3 UV-I 533 W/m 0,9 C 7,9 C 14,5 km/h (3 Bft)
12.10.2015 13:00 8,5 C 59 % 1019,1 hPa 0,0 l/m 6,4 km/h (2 Bft) O-NO 78 5 min 0,000 mm 2,3 UV-I 547 W/m 1,0 C 8,5 C 17,7 km/h (3 Bft)
12.10.2015 13:05 8,7 C 59 % 1019,1 hPa 0,0 l/m 3,5 km/h (1 Bft) O 96 5 min 0,254 mm 2,3 UV-I 561 W/m 1,1 C 8,7 C 9,7 km/h (2 Bft)
12.10.2015 13:10 8,8 C 59 % 1019,1 hPa 0,0 l/m 5,7 km/h (1 Bft) O-NO 63 5 min 0,000 mm 2,3 UV-I 546 W/m 1,2 C 8,8 C 14,5 km/h (3 Bft)
12.10.2015 13:15 8,9 C 58 % 1019,0 hPa 0,0 l/m 5,1 km/h (1 Bft) O-SO 111 5 min 0,000 mm 2,3 UV-I 548 W/m 1,1 C 8,9 C 14,5 km/h (3 Bft)
12.10.2015 13:20 9,0 C 57 % 1019,0 hPa 0,0 l/m 7,0 km/h (2 Bft) O-NO 64 5 min 0,000 mm 2,3 UV-I 561 W/m 0,9 C 8,5 C 14,5 km/h (3 Bft)
12.10.2015 13:25 9,3 C 56 % 1018,9 hPa 0,0 l/m 4,8 km/h (1 Bft) O-NO 70 5 min 0,000 mm 2,3 UV-I 565 W/m 1,0 C 9,3 C 12,9 km/h (3 Bft)
12.10.2015 13:30 8,8 C 56 % 1018,9 hPa 0,0 l/m 6,0 km/h (2 Bft) O-SO 113 5 min 0,000 mm 2,3 UV-I 555 W/m 0,5 C 8,8 C 12,9 km/h (3 Bft)
12.10.2015 13:35 9,1 C 57 % 1018,9 hPa 0,0 l/m 0,3 km/h (0 Bft) S-SO 161 5 min 0,000 mm 2,3 UV-I 539 W/m 1,0 C 9,1 C 6,4 km/h (2 Bft)
12.10.2015 13:40 9,2 C 56 % 1018,9 hPa 0,0 l/m 3,5 km/h (1 Bft) O 94 5 min 0,000 mm 2,2 UV-I 511 W/m 0,9 C 9,2 C 12,9 km/h (3 Bft)
12.10.2015 13:45 9,3 C 56 % 1018,8 hPa 0,0 l/m 2,4 km/h (1 Bft) O-NO 61 5 min 0,000 mm 2,2 UV-I 527 W/m 1,0 C 9,3 C 11,3 km/h (2 Bft)
12.10.2015 13:50 9,7 C 56 % 1018,8 hPa 0,0 l/m 1,5 km/h (1 Bft) O-SO 103 5 min 0,000 mm 2,2 UV-I 543 W/m 1,4 C 9,7 C 12,9 km/h (3 Bft)
12.10.2015 13:55 10,1 C 57 % 1018,8 hPa 0,0 l/m 0,0 km/h (0 Bft) SW 232 5 min 0,000 mm 2,2 UV-I 519 W/m 2,0 C 10,1 C 0,0 km/h (0 Bft)
12.10.2015 14:00 10,3 C 54 % 1018,8 hPa 0,0 l/m 4,1 km/h (1 Bft) O-NO 67 5 min 0,000 mm 2,1 UV-I 535 W/m 1,4 C 10,3 C 14,5 km/h (3 Bft)
12.10.2015 14:05 10,0 C 55 % 1018,7 hPa 0,0 l/m 0,1 km/h (0 Bft) SO 140 5 min 0,254 mm 2,2 UV-I 564 W/m 1,4 C 10,0 C 1,6 km/h (1 Bft)
12.10.2015 14:10 10,3 C 56 % 1018,6 hPa 0,0 l/m 0,1 km/h (0 Bft) SO 124 5 min 0,000 mm 2,2 UV-I 572 W/m 1,9 C 10,3 C 1,6 km/h (1 Bft)
12.10.2015 14:15 10,3 C 54 % 1018,6 hPa 0,0 l/m 3,4 km/h (1 Bft) O 86 5 min 0,000 mm 2,0 UV-I 529 W/m 1,4 C 10,3 C 12,9 km/h (3 Bft)
12.10.2015 14:20 9,9 C 54 % 1018,6 hPa 0,0 l/m 4,7 km/h (1 Bft) O-SO 105 5 min 0,000 mm 2,1 UV-I 561 W/m 1,0 C 9,9 C 11,3 km/h (2 Bft)
12.10.2015 14:25 9,4 C 55 % 1018,6 hPa 0,0 l/m 6,4 km/h (2 Bft) O-NO 60 5 min 0,000 mm 2,1 UV-I 559 W/m 0,8 C 9,4 C 12,9 km/h (3 Bft)
12.10.2015 14:30 9,4 C 56 % 1018,5 hPa 0,0 l/m 4,2 km/h (1 Bft) S-SO 147 5 min 0,000 mm 2,1 UV-I 562 W/m 1,1 C 9,4 C 14,5 km/h (3 Bft)
12.10.2015 14:35 9,6 C 56 % 1018,4 hPa 0,0 l/m 5,2 km/h (1 Bft) O-SO 111 5 min 0,000 mm 2,0 UV-I 545 W/m 1,3 C 9,6 C 16,1 km/h (3 Bft)
12.10.2015 14:40 9,7 C 55 % 1018,4 hPa 0,0 l/m 7,3 km/h (2 Bft) O-NO 65 5 min 0,000 mm 2,0 UV-I 530 W/m 1,1 C 9,0 C 12,9 km/h (3 Bft)
12.10.2015 14:45 9,9 C 55 % 1018,4 hPa 0,0 l/m 2,8 km/h (1 Bft) SO 132 5 min 0,000 mm 1,9 UV-I 530 W/m 1,3 C 9,9 C 11,3 km/h (2 Bft)
12.10.2015 14:50 9,9 C 56 % 1018,3 hPa 0,0 l/m 5,3 km/h (1 Bft) O-NO 67 5 min 0,000 mm 1,8 UV-I 509 W/m 1,5 C 9,9 C 14,5 km/h (3 Bft)
12.10.2015 14:55 10,2 C 55 % 1018,3 hPa 0,0 l/m 7,0 km/h (2 Bft) O-NO 69 5 min 0,000 mm 1,6 UV-I 445 W/m 1,6 C 9,8 C 16,1 km/h (3 Bft)
12.10.2015 15:00 10,6 C 53 % 1018,2 hPa 0,0 l/m 2,7 km/h (1 Bft) O-NO 65 5 min 0,000 mm 1,6 UV-I 446 W/m 1,4 C 10,6 C 12,9 km/h (3 Bft)
12.10.2015 15:05 10,8 C 53 % 1018,2 hPa 0,0 l/m 1,0 km/h (0 Bft) O-NO 67 5 min 0,254 mm 1,6 UV-I 462 W/m 1,6 C 10,8 C 6,4 km/h (2 Bft)
12.10.2015 15:10 10,6 C 53 % 1018,2 hPa 0,0 l/m 2,2 km/h (1 Bft) NO 38 5 min 0,000 mm 1,5 UV-I 439 W/m 1,4 C 10,6 C 11,3 km/h (2 Bft)
12.10.2015 15:15 10,8 C 53 % 1018,2 hPa 0,0 l/m 3,1 km/h (1 Bft) NO 53 5 min 0,000 mm 1,4 UV-I 420 W/m 1,6 C 10,8 C 16,1 km/h (3 Bft)
12.10.2015 15:20 10,7 C 53 % 1018,2 hPa 0,0 l/m 4,5 km/h (1 Bft) O-SO 106 5 min 0,000 mm 1,4 UV-I 390 W/m 1,5 C 10,7 C 11,3 km/h (2 Bft)
12.10.2015 15:25 10,6 C 52 % 1018,2 hPa 0,0 l/m 5,7 km/h (1 Bft) O 80 5 min 0,000 mm 1,4 UV-I 400 W/m 1,2 C 10,6 C 12,9 km/h (3 Bft)
12.10.2015 15:30 10,6 C 52 % 1018,2 hPa 0,0 l/m 7,4 km/h (2 Bft) NO 51 5 min 0,000 mm 1,4 UV-I 453 W/m 1,2 C 9,9 C 16,1 km/h (3 Bft)
12.10.2015 15:35 10,6 C 53 % 1018,1 hPa 0,0 l/m 1,4 km/h (1 Bft) O-NO 62 5 min 0,000 mm 1,3 UV-I 450 W/m 1,4 C 10,6 C 12,9 km/h (3 Bft)
12.10.2015 15:40 11,0 C 53 % 1018,0 hPa 0,0 l/m 0,2 km/h (0 Bft) NO 46 5 min 0,000 mm 1,3 UV-I 440 W/m 1,8 C 11,0 C 3,2 km/h (1 Bft)
12.10.2015 15:45 10,9 C 52 % 1017,9 hPa 0,0 l/m 5,0 km/h (1 Bft) O-NO 62 5 min 0,000 mm 1,1 UV-I 322 W/m 1,4 C 10,9 C 12,9 km/h (3 Bft)
12.10.2015 15:50 10,4 C 54 % 1017,9 hPa 0,0 l/m 8,3 km/h (2 Bft) O-NO 69 5 min 0,000 mm 1,1 UV-I 340 W/m 1,5 C 9,1 C 16,1 km/h (3 Bft)
12.10.2015 15:55 10,3 C 55 % 1017,8 hPa 0,0 l/m 1,6 km/h (1 Bft) O-NO 75 5 min 0,000 mm 1,1 UV-I 331 W/m 1,7 C 10,3 C 11,3 km/h (2 Bft)
12.10.2015 16:00 10,3 C 53 % 1017,9 hPa 0,0 l/m 6,1 km/h (2 Bft) NO 54 5 min 0,000 mm 1,0 UV-I 289 W/m 1,1 C 10,3 C 14,5 km/h (3 Bft)
12.10.2015 16:05 10,2 C 53 % 1017,9 hPa 0,0 l/m 5,3 km/h (1 Bft) NO 46 5 min 0,204 mm 0,9 UV-I 249 W/m 1,1 C 10,2 C 14,5 km/h (3 Bft)
12.10.2015 16:10 10,1 C 54 % 1017,8 hPa 0,0 l/m 6,3 km/h (2 Bft) N-NO 26 5 min 0,000 mm 0,9 UV-I 250 W/m 1,2 C 10,1 C 12,9 km/h (3 Bft)
12.10.2015 16:15 10,1 C 53 % 1017,8 hPa 0,0 l/m 2,4 km/h (1 Bft) NO 49 5 min 0,000 mm 0,8 UV-I 212 W/m 1,0 C 10,1 C 9,7 km/h (2 Bft)
12.10.2015 16:20 10,0 C 54 % 1017,8 hPa 0,0 l/m 6,2 km/h (2 Bft) O-NO 70 5 min 0,000 mm 0,7 UV-I 189 W/m 1,1 C 10,0 C 14,5 km/h (3 Bft)
12.10.2015 16:25 9,7 C 55 % 1017,7 hPa 0,0 l/m 7,7 km/h (2 Bft) O-NO 72 5 min 0,000 mm 0,7 UV-I 187 W/m 1,1 C 8,7 C 14,5 km/h (3 Bft)
12.10.2015 16:30 9,6 C 56 % 1017,7 hPa 0,0 l/m 8,2 km/h (2 Bft) NO 54 5 min 0,000 mm 0,7 UV-I 179 W/m 1,3 C 8,3 C 16,1 km/h (3 Bft)
12.10.2015 16:35 9,6 C 57 % 1017,7 hPa 0,0 l/m 3,0 km/h (1 Bft) NO 51 0 min 0,000 mm 0,6 UV-I 155 W/m 1,5 C 9,6 C 12,9 km/h (3 Bft)
12.10.2015 16:40 9,6 C 58 % 1017,7 hPa 0,0 l/m 2,1 km/h (1 Bft) NO 40 0 min 0,000 mm 0,6 UV-I 144 W/m 1,8 C 9,6 C 8,0 km/h (2 Bft)
12.10.2015 16:45 9,6 C 59 % 1017,7 hPa 0,0 l/m 1,1 km/h (1 Bft) O-NO 65 0 min 0,000 mm 0,5 UV-I 135 W/m 2,0 C 9,6 C 8,0 km/h (2 Bft)
12.10.2015 16:50 9,5 C 59 % 1017,7 hPa 0,0 l/m 3,1 km/h (1 Bft) NO 56 0 min 0,000 mm 0,5 UV-I 123 W/m 1,9 C 9,5 C 12,9 km/h (3 Bft)
12.10.2015 16:55 9,4 C 59 % 1017,6 hPa 0,0 l/m 4,8 km/h (1 Bft) O-NO 59 0 min 0,000 mm 0,5 UV-I 115 W/m 1,8 C 9,4 C 12,9 km/h (3 Bft)
12.10.2015 17:00 9,3 C 59 % 1017,6 hPa 0,0 l/m 4,5 km/h (1 Bft) NO 49 0 min 0,000 mm 0,0 UV-I 109 W/m 1,7 C 9,3 C 11,3 km/h (2 Bft)
12.10.2015 17:05 9,2 C 60 % 1017,6 hPa 0,0 l/m 7,3 km/h (2 Bft) O 98 0 min 0,101 mm 0,0 UV-I 102 W/m 1,8 C 8,5 C 12,9 km/h (3 Bft)
12.10.2015 17:10 9,2 C 61 % 1017,5 hPa 0,0 l/m 1,3 km/h (1 Bft) O-NO 68 0 min 0,000 mm 0,0 UV-I 95 W/m 2,1 C 9,2 C 9,7 km/h (2 Bft)
12.10.2015 17:15 9,2 C 62 % 1017,5 hPa 0,0 l/m 0,6 km/h (0 Bft) NO 53 0 min 0,000 mm 0,0 UV-I 89 W/m 2,3 C 9,2 C 6,4 km/h (2 Bft)
12.10.2015 17:20 9,2 C 62 % 1017,4 hPa 0,0 l/m 0,3 km/h (0 Bft) O-NO 66 0 min 0,000 mm 0,0 UV-I 86 W/m 2,3 C 9,2 C 6,4 km/h (2 Bft)
12.10.2015 17:25 9,2 C 62 % 1017,3 hPa 0,0 l/m 1,6 km/h (1 Bft) NO 50 0 min 0,000 mm 0,0 UV-I 84 W/m 2,3 C 9,2 C 8,0 km/h (2 Bft)
12.10.2015 17:30 9,1 C 62 % 1017,3 hPa 0,0 l/m 1,9 km/h (1 Bft) NO 50 0 min 0,000 mm 0,0 UV-I 77 W/m 2,2 C 9,1 C 11,3 km/h (2 Bft)
12.10.2015 17:35 9,0 C 63 % 1017,3 hPa 0,0 l/m 0,0 km/h (0 Bft) NO 51 0 min 0,000 mm 0,0 UV-I 69 W/m 2,3 C 9,0 C 0,0 km/h (0 Bft)
12.10.2015 17:40 9,0 C 63 % 1017,4 hPa 0,0 l/m 0,0 km/h (0 Bft) NO 51 0 min 0,000 mm 0,0 UV-I 63 W/m 2,3 C 9,0 C 0,0 km/h (0 Bft)
12.10.2015 17:45 8,9 C 63 % 1017,4 hPa 0,0 l/m 0,0 km/h (0 Bft) NO 51 0 min 0,000 mm 0,0 UV-I 57 W/m 2,2 C 8,9 C 0,0 km/h (0 Bft)
12.10.2015 17:50 8,9 C 63 % 1017,3 hPa 0,0 l/m 0,0 km/h (0 Bft) NO 51 0 min 0,000 mm 0,0 UV-I 49 W/m 2,2 C 8,9 C 0,0 km/h (0 Bft)
12.10.2015 17:55 8,8 C 64 % 1017,4 hPa 0,0 l/m 0,0 km/h (0 Bft) NO 51 0 min 0,000 mm 0,0 UV-I 41 W/m 2,4 C 8,8 C 0,0 km/h (0 Bft)
12.10.2015 18:00 8,8 C 65 % 1017,3 hPa 0,0 l/m 0,0 km/h (0 Bft) NO 51 0 min 0,000 mm 0,0 UV-I 33 W/m 2,6 C 8,8 C 0,0 km/h (0 Bft)
12.10.2015 18:05 8,8 C 65 % 1017,3 hPa 0,0 l/m 0,0 km/h (0 Bft) NO 51 0 min 0,051 mm 0,0 UV-I 29 W/m 2,6 C 8,8 C 0,0 km/h (0 Bft)
12.10.2015 18:10 8,7 C 66 % 1017,3 hPa 0,0 l/m 0,0 km/h (0 Bft) NO 51 0 min 0,000 mm 0,0 UV-I 24 W/m 2,7 C 8,7 C 0,0 km/h (0 Bft)
12.10.2015 18:15 8,7 C 66 % 1017,4 hPa 0,0 l/m 0,0 km/h (0 Bft) NO 51 0 min 0,000 mm 0,0 UV-I 19 W/m 2,7 C 8,7 C 0,0 km/h (0 Bft)
12.10.2015 18:20 8,6 C 66 % 1017,4 hPa 0,0 l/m 0,0 km/h (0 Bft) NO 51 0 min 0,000 mm 0,0 UV-I 14 W/m 2,6 C 8,6 C 0,0 km/h (0 Bft)
12.10.2015 18:25 8,3 C 67 % 1017,4 hPa 0,0 l/m 0,0 km/h (0 Bft) NO 51 0 min 0,000 mm 0,0 UV-I 10 W/m 2,5 C 8,3 C 0,0 km/h (0 Bft)
12.10.2015 18:30 8,0 C 69 % 1017,5 hPa 0,0 l/m 0,0 km/h (0 Bft) NO 51 0 min 0,000 mm 0,0 UV-I 6 W/m 2,7 C 8,0 C 0,0 km/h (0 Bft)
12.10.2015 18:35 7,6 C 70 % 1017,5 hPa 0,0 l/m 0,0 km/h (0 Bft) NO 51 0 min 0,000 mm 0,0 UV-I 5 W/m 2,5 C 7,6 C 0,0 km/h (0 Bft)
12.10.2015 18:40 7,4 C 71 % 1017,5 hPa 0,0 l/m 0,0 km/h (0 Bft) NO 51 0 min 0,000 mm 0,0 UV-I 3 W/m 2,5 C 7,4 C 1,6 km/h (1 Bft)
12.10.2015 18:45 7,3 C 71 % 1017,6 hPa 0,0 l/m 0,0 km/h (0 Bft) NO 51 0 min 0,000 mm 0,0 UV-I 0 W/m 2,4 C 7,3 C 0,0 km/h (0 Bft)
12.10.2015 18:50 7,2 C 71 % 1017,6 hPa 0,0 l/m 0,0 km/h (0 Bft) NO 51 0 min 0,000 mm 0,0 UV-I 0 W/m 2,3 C 7,2 C 0,0 km/h (0 Bft)
12.10.2015 18:55 7,2 C 71 % 1017,6 hPa 0,0 l/m 0,0 km/h (0 Bft) NO 51 0 min 0,000 mm 0,0 UV-I 0 W/m 2,3 C 7,2 C 0,0 km/h (0 Bft)
12.10.2015 19:00 7,1 C 71 % 1017,6 hPa 0,0 l/m 0,0 km/h (0 Bft) NO 51 0 min 0,000 mm 0,0 UV-I 0 W/m 2,2 C 7,1 C 0,0 km/h (0 Bft)
12.10.2015 19:05 7,0 C 72 % 1017,6 hPa 0,0 l/m 0,0 km/h (0 Bft) NO 51 0 min 0,000 mm 0,0 UV-I 0 W/m 2,3 C 7,0 C 0,0 km/h (0 Bft)
12.10.2015 19:10 6,9 C 72 % 1017,6 hPa 0,0 l/m 0,0 km/h (0 Bft) NO 51 0 min 0,000 mm 0,0 UV-I 0 W/m 2,2 C 6,9 C 0,0 km/h (0 Bft)
12.10.2015 19:15 6,9 C 72 % 1017,7 hPa 0,0 l/m 0,0 km/h (0 Bft) NO 51 0 min 0,000 mm 0,0 UV-I 0 W/m 2,2 C 6,9 C 0,0 km/h (0 Bft)
12.10.2015 19:20 6,8 C 73 % 1017,8 hPa 0,0 l/m 0,0 km/h (0 Bft) NO 51 0 min 0,000 mm 0,0 UV-I 0 W/m 2,3 C 6,8 C 0,0 km/h (0 Bft)
12.10.2015 19:25 6,7 C 74 % 1017,6 hPa 0,0 l/m 0,0 km/h (0 Bft) O 95 0 min 0,000 mm 0,0 UV-I 0 W/m 2,4 C 6,7 C 1,6 km/h (1 Bft)
12.10.2015 19:30 6,4 C 74 % 1017,7 hPa 0,0 l/m 0,2 km/h (0 Bft) O 99 0 min 0,000 mm 0,0 UV-I 0 W/m 2,1 C 6,4 C 3,2 km/h (1 Bft)
12.10.2015 19:35 6,4 C 75 % 1017,7 hPa 0,0 l/m 0,3 km/h (0 Bft) NO 44 0 min 0,000 mm 0,0 UV-I 0 W/m 2,3 C 6,4 C 3,2 km/h (1 Bft)
12.10.2015 19:40 6,3 C 75 % 1017,7 hPa 0,0 l/m 0,3 km/h (0 Bft) O-NO 66 0 min 0,000 mm 0,0 UV-I 0 W/m 2,2 C 6,3 C 3,2 km/h (1 Bft)
12.10.2015 19:45 6,3 C 75 % 1017,7 hPa 0,0 l/m 0,5 km/h (0 Bft) O 82 0 min 0,000 mm 0,0 UV-I 0 W/m 2,2 C 6,3 C 3,2 km/h (1 Bft)
12.10.2015 19:50 6,2 C 75 % 1017,7 hPa 0,0 l/m 0,0 km/h (0 Bft) O-NO 76 0 min 0,000 mm 0,0 UV-I 0 W/m 2,1 C 6,2 C 1,6 km/h (1 Bft)
12.10.2015 19:55 6,2 C 75 % 1017,8 hPa 0,0 l/m 0,0 km/h (0 Bft) O-NO 76 0 min 0,000 mm 0,0 UV-I 0 W/m 2,1 C 6,2 C 0,0 km/h (0 Bft)
12.10.2015 20:00 6,1 C 75 % 1017,6 hPa 0,0 l/m 0,0 km/h (0 Bft) O-NO 76 0 min 0,000 mm 0,0 UV-I 0 W/m 2,0 C 6,1 C 0,0 km/h (0 Bft)
12.10.2015 20:05 6,1 C 75 % 1017,6 hPa 0,0 l/m 1,1 km/h (1 Bft) NO 36 0 min 0,025 mm 0,0 UV-I 0 W/m 2,0 C 6,1 C 8,0 km/h (2 Bft)
12.10.2015 20:10 6,0 C 74 % 1017,7 hPa 0,0 l/m 1,4 km/h (1 Bft) N-NO 28 0 min 0,000 mm 0,0 UV-I 0 W/m 1,7 C 6,0 C 4,8 km/h (1 Bft)
12.10.2015 20:15 5,9 C 74 % 1017,8 hPa 0,0 l/m 0,1 km/h (0 Bft) N-NO 28 0 min 0,000 mm 0,0 UV-I 0 W/m 1,6 C 5,9 C 1,6 km/h (1 Bft)
12.10.2015 20:20 6,0 C 75 % 1017,8 hPa 0,0 l/m 0,0 km/h (0 Bft) NO 42 0 min 0,000 mm 0,0 UV-I 0 W/m 1,9 C 6,0 C 1,6 km/h (1 Bft)
12.10.2015 20:25 6,0 C 75 % 1017,9 hPa 0,0 l/m 0,0 km/h (0 Bft) NO 51 0 min 0,000 mm 0,0 UV-I 0 W/m 1,9 C 6,0 C 0,0 km/h (0 Bft)
12.10.2015 20:30 5,9 C 74 % 1018,0 hPa 0,0 l/m 0,0 km/h (0 Bft) NO 51 0 min 0,000 mm 0,0 UV-I 0 W/m 1,6 C 5,9 C 0,0 km/h (0 Bft)
12.10.2015 20:35 5,9 C 74 % 1017,8 hPa 0,0 l/m 0,0 km/h (0 Bft) NO 51 0 min 0,000 mm 0,0 UV-I 0 W/m 1,6 C 5,9 C 0,0 km/h (0 Bft)
12.10.2015 20:40 5,8 C 75 % 1017,9 hPa 0,0 l/m 0,0 km/h (0 Bft) NO 51 0 min 0,000 mm 0,0 UV-I 0 W/m 1,7 C 5,8 C 0,0 km/h (0 Bft)
12.10.2015 20:45 5,8 C 75 % 1017,8 hPa 0,0 l/m 0,0 km/h (0 Bft) NO 51 0 min 0,000 mm 0,0 UV-I 0 W/m 1,7 C 5,8 C 1,6 km/h (1 Bft)
12.10.2015 20:50 5,7 C 76 % 1017,7 hPa 0,0 l/m 0,2 km/h (0 Bft) NO 56 0 min 0,000 mm 0,0 UV-I 0 W/m 1,8 C 5,7 C 3,2 km/h (1 Bft)
12.10.2015 20:55 5,7 C 76 % 1017,6 hPa 0,0 l/m 0,0 km/h (0 Bft) NO 56 0 min 0,000 mm 0,0 UV-I 0 W/m 1,8 C 5,7 C 0,0 km/h (0 Bft)
12.10.2015 21:00 5,6 C 76 % 1017,6 hPa 0,0 l/m 0,0 km/h (0 Bft) NO 56 0 min 0,000 mm 0,0 UV-I 0 W/m 1,7 C 5,6 C 0,0 km/h (0 Bft)
12.10.2015 21:05 5,6 C 76 % 1017,5 hPa 0,0 l/m 0,0 km/h (0 Bft) NO 56 0 min 0,026 mm 0,0 UV-I 0 W/m 1,7 C 5,6 C 1,6 km/h (1 Bft)
12.10.2015 21:10 5,4 C 76 % 1017,5 hPa 0,0 l/m 0,1 km/h (0 Bft) O-NO 63 0 min 0,000 mm 0,0 UV-I 0 W/m 1,5 C 5,4 C 1,6 km/h (1 Bft)
12.10.2015 21:15 5,4 C 77 % 1017,6 hPa 0,0 l/m 0,0 km/h (0 Bft) N 11 0 min 0,000 mm 0,0 UV-I 0 W/m 1,7 C 5,4 C 0,0 km/h (0 Bft)
12.10.2015 21:20 5,3 C 77 % 1017,7 hPa 0,0 l/m 0,0 km/h (0 Bft) N 11 0 min 0,000 mm 0,0 UV-I 0 W/m 1,6 C 5,3 C 0,0 km/h (0 Bft)
12.10.2015 21:25 5,3 C 77 % 1017,7 hPa 0,0 l/m 0,4 km/h (0 Bft) NO 42 0 min 0,000 mm 0,0 UV-I 0 W/m 1,6 C 5,3 C 3,2 km/h (1 Bft)
12.10.2015 21:30 5,2 C 76 % 1017,7 hPa 0,0 l/m 0,6 km/h (0 Bft) NO 42 0 min 0,000 mm 0,0 UV-I 0 W/m 1,3 C 5,2 C 4,8 km/h (1 Bft)
12.10.2015 21:35 5,2 C 76 % 1017,6 hPa 0,0 l/m 0,9 km/h (0 Bft) NO 43 0 min 0,000 mm 0,0 UV-I 0 W/m 1,3 C 5,2 C 3,2 km/h (1 Bft)
12.10.2015 21:40 5,2 C 76 % 1017,6 hPa 0,0 l/m 2,9 km/h (1 Bft) NO 36 0 min 0,000 mm 0,0 UV-I 0 W/m 1,3 C 5,2 C 6,4 km/h (2 Bft)
12.10.2015 21:45 5,2 C 76 % 1017,6 hPa 0,0 l/m 1,7 km/h (1 Bft) NO 53 0 min 0,000 mm 0,0 UV-I 0 W/m 1,3 C 5,2 C 8,0 km/h (2 Bft)
12.10.2015 21:50 5,1 C 76 % 1017,5 hPa 0,0 l/m 2,0 km/h (1 Bft) NO 51 0 min 0,000 mm 0,0 UV-I 0 W/m 1,2 C 5,1 C 6,4 km/h (2 Bft)
12.10.2015 21:55 4,9 C 77 % 1017,5 hPa 0,0 l/m 3,0 km/h (1 Bft) NO 46 0 min 0,000 mm 0,0 UV-I 0 W/m 1,2 C 4,9 C 8,0 km/h (2 Bft)
12.10.2015 22:00 4,9 C 77 % 1017,5 hPa 0,0 l/m 1,8 km/h (1 Bft) NO 55 0 min 0,000 mm 0,0 UV-I 0 W/m 1,2 C 4,9 C 6,4 km/h (2 Bft)
12.10.2015 22:05 4,8 C 77 % 1017,6 hPa 0,0 l/m 1,3 km/h (1 Bft) O-NO 65 0 min 0,025 mm 0,0 UV-I 0 W/m 1,1 C 4,8 C 6,4 km/h (2 Bft)
12.10.2015 22:10 4,8 C 77 % 1017,5 hPa 0,0 l/m 0,8 km/h (0 Bft) NO 46 0 min 0,000 mm 0,0 UV-I 0 W/m 1,1 C 4,8 C 4,8 km/h (1 Bft)
12.10.2015 22:15 4,6 C 77 % 1017,6 hPa 0,0 l/m 1,3 km/h (1 Bft) NO 53 0 min 0,000 mm 0,0 UV-I 0 W/m 0,9 C 4,6 C 4,8 km/h (1 Bft)
12.10.2015 22:20 4,6 C 77 % 1017,6 hPa 0,0 l/m 2,4 km/h (1 Bft) O-NO 65 0 min 0,000 mm 0,0 UV-I 0 W/m 0,9 C 4,6 C 6,4 km/h (2 Bft)
12.10.2015 22:25 4,4 C 77 % 1017,4 hPa 0,0 l/m 1,8 km/h (1 Bft) NO 46 0 min 0,000 mm 0,0 UV-I 0 W/m 0,7 C 4,4 C 6,4 km/h (2 Bft)
12.10.2015 22:30 4,4 C 78 % 1017,4 hPa 0,0 l/m 1,2 km/h (1 Bft) NO 55 0 min 0,000 mm 0,0 UV-I 0 W/m 0,9 C 4,4 C 4,8 km/h (1 Bft)
12.10.2015 22:35 4,3 C 78 % 1017,3 hPa 0,0 l/m 2,4 km/h (1 Bft) O-NO 57 0 min 0,000 mm 0,0 UV-I 0 W/m 0,8 C 4,3 C 11,3 km/h (2 Bft)
12.10.2015 22:40 4,2 C 78 % 1017,2 hPa 0,0 l/m 2,3 km/h (1 Bft) NO 52 0 min 0,000 mm 0,0 UV-I 0 W/m 0,7 C 4,2 C 8,0 km/h (2 Bft)
12.10.2015 22:45 4,1 C 78 % 1017,2 hPa 0,0 l/m 2,0 km/h (1 Bft) O-NO 59 0 min 0,000 mm 0,0 UV-I 0 W/m 0,6 C 4,1 C 6,4 km/h (2 Bft)
12.10.2015 22:50 4,1 C 78 % 1017,2 hPa 0,0 l/m 0,1 km/h (0 Bft) O-NO 59 0 min 0,000 mm 0,0 UV-I 0 W/m 0,6 C 4,1 C 1,6 km/h (1 Bft)
12.10.2015 22:55 3,9 C 78 % 1017,1 hPa 0,0 l/m 0,7 km/h (0 Bft) O-NO 59 0 min 0,000 mm 0,0 UV-I 0 W/m 0,4 C 3,9 C 4,8 km/h (1 Bft)
12.10.2015 23:00 3,8 C 78 % 1017,1 hPa 0,0 l/m 0,0 km/h (0 Bft) O-NO 59 0 min 0,000 mm 0,0 UV-I 0 W/m 0,3 C 3,8 C 1,6 km/h (1 Bft)
12.10.2015 23:05 3,7 C 78 % 1017,2 hPa 0,0 l/m 0,0 km/h (0 Bft) O-NO 59 0 min 0,026 mm 0,0 UV-I 0 W/m 0,2 C 3,7 C 0,0 km/h (0 Bft)
12.10.2015 23:10 3,5 C 78 % 1017,2 hPa 0,0 l/m 0,0 km/h (0 Bft) O-NO 59 0 min 0,000 mm 0,0 UV-I 0 W/m 0,0 C 3,5 C 0,0 km/h (0 Bft)
12.10.2015 23:15 3,4 C 79 % 1017,2 hPa 0,0 l/m 0,0 km/h (0 Bft) O-NO 59 0 min 0,000 mm 0,0 UV-I 0 W/m 0,1 C 3,4 C 0,0 km/h (0 Bft)
12.10.2015 23:20 3,3 C 79 % 1017,2 hPa 0,0 l/m 0,0 km/h (0 Bft) O-NO 59 0 min 0,000 mm 0,0 UV-I 0 W/m 0,0 C 3,3 C 0,0 km/h (0 Bft)
12.10.2015 23:25 3,2 C 79 % 1017,1 hPa 0,0 l/m 0,0 km/h (0 Bft) O-NO 59 0 min 0,000 mm 0,0 UV-I 0 W/m -0,1 C 3,2 C 0,0 km/h (0 Bft)
12.10.2015 23:30 3,1 C 79 % 1017,1 hPa 0,0 l/m 0,0 km/h (0 Bft) O-NO 59 0 min 0,000 mm 0,0 UV-I 0 W/m -0,2 C 3,1 C 0,0 km/h (0 Bft)
12.10.2015 23:35 3,0 C 79 % 1017,0 hPa 0,0 l/m 0,0 km/h (0 Bft) O-NO 59 0 min 0,000 mm 0,0 UV-I 0 W/m -0,3 C 3,0 C 0,0 km/h (0 Bft)
12.10.2015 23:40 2,9 C 79 % 1017,0 hPa 0,0 l/m 0,0 km/h (0 Bft) O-NO 59 0 min 0,000 mm 0,0 UV-I 0 W/m -0,4 C 2,9 C 0,0 km/h (0 Bft)
12.10.2015 23:45 2,7 C 79 % 1016,9 hPa 0,0 l/m 0,0 km/h (0 Bft) O-NO 59 0 min 0,000 mm 0,0 UV-I 0 W/m -0,6 C 2,7 C 0,0 km/h (0 Bft)
12.10.2015 23:50 2,6 C 79 % 1016,9 hPa 0,0 l/m 0,7 km/h (0 Bft) O-NO 59 0 min 0,000 mm 0,0 UV-I 0 W/m -0,7 C 2,6 C 3,2 km/h (1 Bft)
12.10.2015 23:55 2,5 C 79 % 1016,9 hPa 0,0 l/m 0,0 km/h (0 Bft) O-NO 59 0 min 0,000 mm 0,0 UV-I 0 W/m -0,8 C 2,5 C 0,0 km/h (0 Bft)
_ Min-Zeit 07:40 15:25 23:45 - 00:05 - - - - - - 07:40 07:40 00:05
Minimum _ -0,6 C 52 % 1016,9 hPa - 0,0 km/h (0 Bft) - - - - - - -3,6 C -0,6 C 0,0 km/h (0 Bft)
_ Max-Zeit 15:45 05:50 08:45 00:00 15:50 - - 07:55 13:05 12:50 14:10 18:10 15:40 13:00
Maximum _ 11,1 C 80 % 1019,6 hPa 0,0 l/m 8,3 km/h
O-NO (2 Bft)
- - 5 min 0,254 mm 2,3 UV-I 572 W/m 2,7 C 11,0 C 17,7 km/h
O-SO (3 Bft)
Durchschnitt _ 4,9 C 71 % 1018,4 hPa #0,0 l/m 1,8 km/h (1 Bft) O-NO - #8:10 h #1,753 mm 1,5 UV-I 299 W/m -0,1 C 4,8 C 6,1 km/h (2 Bft)